Regional Weather Roundup
Issued by NWS Sioux Falls, SD

Home | Current Version | Previous Version | Text Only | Print | Product List | Glossary On
Versions: 1 2 3 4 5 6 7 8 9 10 11 12 13 14 15 16 17 18 19 20 21 22 23 24 25 26 27 28 29 30 31 32 33 34 35 36 37 38 39 40 41 42 43 44 45 46 47 48 49 50
000
ASUS43 KFSD 261702
RWRFSD

WEATHER ROUNDUP FOR SE SOUTH DAKOTA/SW MINNESOTA/NW IOWA
NATIONAL WEATHER SERVICE SIOUX FALLS SD
1100 AM CST WED NOV 26 2014

NOTE: "FAIR" INDICATES FEW OR NO CLOUDS BELOW 12,000 FEET WITH NO
SIGNIFICANT WEATHER AND OR OBSTRUCTIONS TO VISIBILITY.


SDZ038>040-050-052>070-261800-
SOUTHEAST SOUTH DAKOTA

CITY           SKY/WX    TMP DP  RH WIND       PRES   REMARKS
CHAMBERLAIN    NOT AVBL
HURON          SUNNY     11   4  73 N21       30.33R WCI  -8
MADISON        PTSUNNY   16  16 100 N17       30.21R WCI   0
MITCHELL       MIX PCPN  14   8  77 N18       30.32R WCI  -3
SIOUX FALLS    MOSUNNY   22  15  75 N23       30.19R WCI   6
WINNER         CLOUDY    22  12  65 N10       30.32R WCI  11
YANKTON        CLOUDY    19  12  73 NW24G30   30.25R WCI   2
$$

MNZ071-072-080-081-089-090-097-098-261800-
SOUTHWEST MINNESOTA

CITY           SKY/WX    TMP DP  RH WIND       PRES   REMARKS
FAIRMONT       CLOUDY    25  21  86 N14       30.10R WCI  13
JACKSON        LGT SNOW  27  21  80 VRB14G23  30.10R WCI  15
LUVERNE        PTSUNNY   25  19  80 N15G23    30.16R WCI  12
MARSHALL       CLOUDY    12   7  79 N24       30.22R WCI  -8
MONTEVIDEO     CLOUDY    16  10  79 N21       30.25R HAZE    WCI  -2
PIPESTONE      PTSUNNY   18  14  86 N17G25    30.16R WCI   2
REDWOOD FALLS  PTSUNNY   24  19  81 N13G20    30.19R WCI  12
TRACY          CLOUDY    19  16  88 N20G26    30.19R FOG     WCI   3
WINDOM         SNOW      23  21  93 N22G28    30.12R VSB 1/2 WCI   8
WORTHINGTON    CLOUDY    21  18  86 N23G30    30.13R WCI   5
$$

IAZ001>003-012>014-020>022-031-032-NEZ013-014-SDZ071-261800-
NORTHWEST IOWA

CITY           SKY/WX    TMP DP  RH WIND       PRES   REMARKS
DENISON        CLOUDY    30  28  93 N21G26    30.01R WCI  17
ESTHERVILLE    LGT SNOW  24  21  88 N18       30.09R FOG     WCI  10
SIOUX CITY     CLOUDY    29  22  75 N29G37    30.14R WCI  14
SPENCER        LGT SNOW  26  22  84 N18G26    30.09R VSB 1   WCI  13
$$

ABBREVIATIONS USED IN REMARKS
   TC - TEMPERATURE IN CELSIUS
  WCI - WIND CHILL INDEX
   HX - HEAT INDEX
  VSB - VISIBILITY




USA.gov is the U.S. government's official web portal to all federal, state and local government web resources and services.